Precipitable_Water
0.47 0.36 0.33 0.32 0.34 0.36 0.36 0.34 0.32 0.29 0.27 0.28 0.28 0.33 0.31 0.31 0.36 0.48 0.53 0.61 0.64 0.56 0.54 0.57 0.63 0.69 0.75 0.80 0.89 0.97 1.02 1.00 0.98 0.96 0.97 1.01 1.00 1.00 1.10 1.16 1.17 1.17 1.18 1.34 1.44 1.50 1.57 1.59 1.58 1.65 1.73 1.82 1.86 1.81 1.87 1.81 1.85 1.91 1.89 1.79 1.73 1.77 1.81 1.79 1.74 1.77 1.79 1.79 1.84 1.86 1.82 1.77 1.85 1.86 1.90 1.92 1.99 2.03 2.02 2.05 2.04 2.04 2.05 2.05 2.07 2.09
0.43 0.35 0.35 0.38 0.39 0.42 0.43 0.39 0.35 0.28 0.28 0.28 0.26 0.28 0.32 0.34 0.33 0.42 0.50 0.61 0.67 0.54 0.54 0.65 0.63 0.69 0.78 0.85 0.91 1.00 0.97 0.92 0.95 0.97 0.98 1.01 1.05 1.07 1.09 1.17 1.25 1.27 1.36 1.46 1.49 1.59 1.63 1.68 1.64 1.60 1.64 1.75 1.66 1.72 1.86 1.84 1.86 1.91 1.87 1.77 1.73 1.79 1.77 1.76 1.76 1.78 1.81 1.85 1.85 1.83 1.80 1.79 1.82 1.81 1.79 1.78 1.88 1.97 2.00 2.02 2.04 2.00 2.00 2.00 1.99 2.02
0.35 0.32 0.35 0.41 0.45 0.46 0.46 0.42 0.35 0.30 0.26 0.25 0.25 0.27 0.29 0.34 0.38 0.47 0.55 0.62 0.64 0.58 0.55 0.66 0.59 0.70 0.82 0.90 0.95 0.97 0.98 0.98 1.03 1.03 1.04 1.06 1.09 1.10 1.16 1.21 1.28 1.36 1.42 1.54 1.58 1.64 1.69 1.59 1.44 1.27 1.31 1.51 1.69 1.73 1.80 1.87 1.82 1.82 1.80 1.76 1.77 1.75 1.73 1.74 1.79 1.80 1.77 1.81 1.84 1.86 1.85 1.83 1.82 1.90 1.90 1.89 1.88 1.92 1.90 1.93 1.94 1.92 1.96 1.99 1.98 2.01
0.30 0.33 0.39 0.44 0.44 0.43 0.43 0.39 0.29 0.23 0.25 0.26 0.22 0.22 0.27 0.33 0.32 0.30 0.48 0.58 0.62 0.55 0.57 0.63 0.62 0.73 0.88 0.96 0.96 1.02 1.02 1.04 1.08 1.10 1.13 1.16 1.12 1.14 1.16 1.20 1.23 1.34 1.39 1.45 1.54 1.58 1.62 1.56 1.48 1.28 1.21 1.27 1.41 1.49 1.56 1.65 1.69 1.72 1.72 1.71 1.72 1.75 1.77 1.77 1.80 1.81 1.83 1.85 1.83 1.83 1.85 1.91 1.87 1.79 1.85 1.87 1.87 1.86 1.88 1.82 1.89 1.89 1.94 1.98 1.99 1.99
0.32 0.36 0.40 0.41 0.42 0.42 0.40 0.38 0.31 0.26 0.26 0.26 0.21 0.23 0.23 0.28 0.31 0.27 0.38 0.54 0.60 0.62 0.66 0.68 0.64 0.70 0.81 0.81 0.89 1.02 1.10 1.06 1.09 1.12 1.16 1.20 1.22 1.26 1.28 1.28 1.29 1.25 1.31 1.39 1.52 1.53 1.58 1.55 1.49 1.38 1.31 1.33 1.36 1.44 1.44 1.51 1.56 1.60 1.63 1.69 1.71 1.70 1.70 1.74 1.78 1.79 1.83 1.83 1.77 1.77 1.78 1.82 1.84 1.85 1.77 1.74 1.71 1.76 1.75 1.73 1.76 1.89 2.00 1.96 1.92 1.95
0.31 0.37 0.39 0.40 0.40 0.42 0.38 0.33 0.33 0.31 0.27 0.24 0.23 0.24 0.26 0.29 0.26 0.30 0.40 0.43 0.44 0.47 0.63 0.58 0.46 0.54 0.74 0.81 0.88 0.98 1.04 1.02 1.11 1.09 1.11 1.16 1.20 1.23 1.19 1.19 1.25 1.29 1.34 1.34 1.38 1.46 1.52 1.58 1.57 1.49 1.34 1.28 1.35 1.36 1.36 1.44 1.51 1.57 1.64 1.72 1.70 1.69 1.75 1.79 1.80 1.80 1.80 1.76 1.71 1.67 1.60 1.53 1.54 1.51 1.59 1.58 1.60 1.66 1.65 1.65 1.81 1.89 1.85 1.80 1.86 1.83
0.33 0.35 0.35 0.35 0.38 0.38 0.36 0.32 0.31 0.29 0.27 0.23 0.25 0.28 0.27 0.22 0.19 0.27 0.35 0.36 0.33 0.35 0.54 0.64 0.40 0.46 0.72 0.76 0.89 0.97 0.99 1.00 1.09 1.09 1.11 1.15 1.17 1.21 1.21 1.24 1.26 1.29 1.31 1.38 1.40 1.47 1.51 1.56 1.51 1.41 1.30 1.29 1.33 1.43 1.54 1.50 1.49 1.54 1.61 1.64 1.65 1.68 1.74 1.83 1.86 1.85 1.80 1.72 1.71 1.66 1.60 1.57 1.52 1.48 1.55 1.63 1.66 1.67 1.71 1.77 1.87 1.91 1.90 1.91 1.93 1.94
0.31 0.32 0.34 0.36 0.36 0.35 0.31 0.29 0.35 0.32 0.28 0.24 0.29 0.28 0.26 0.23 0.21 0.27 0.36 0.40 0.37 0.44 0.55 0.63 0.55 0.45 0.53 0.77 0.95 0.99 0.94 0.97 1.02 1.06 1.08 1.10 1.14 1.18 1.24 1.29 1.32 1.37 1.41 1.42 1.46 1.50 1.54 1.53 1.46 1.41 1.38 1.32 1.35 1.41 1.46 1.50 1.48 1.44 1.52 1.65 1.66 1.68 1.73 1.77 1.80 1.78 1.80 1.70 1.67 1.62 1.54 1.48 1.45 1.43 1.40 1.44 1.40 1.47 1.49 1.48 1.55 1.67 1.75 1.78 1.76 1.85
0.32 0.31 0.32 0.32 0.34 0.32 0.30 0.32 0.35 0.35 0.29 0.28 0.30 0.27 0.27 0.26 0.24 0.23 0.23 0.24 0.26 0.32 0.40 0.53 0.59 0.47 0.56 0.76 0.96 0.96 0.86 0.92 0.94 0.97 1.02 1.07 1.12 1.18 1.22 1.29 1.34 1.40 1.46 1.49 1.48 1.53 1.50 1.45 1.48 1.52 1.48 1.43 1.42 1.38 1.34 1.42 1.46 1.43 1.56 1.65 1.72 1.67 1.71 1.68 1.71 1.65 1.62 1.58 1.50 1.40 1.31 1.19 1.18 1.17 1.17 1.21 1.21 1.19 1.19 1.20 1.34 1.49 1.55 1.61 1.63 1.65
0.33 0.33 0.35 0.36 0.32 0.29 0.32 0.33 0.35 0.35 0.29 0.31 0.29 0.29 0.25 0.24 0.24 0.24 0.24 0.23 0.24 0.24 0.37 0.43 0.54 0.46 0.54 0.74 0.81 0.91 0.84 0.85 0.88 0.95 1.02 1.08 1.12 1.17 1.20 1.28 1.37 1.44 1.48 1.53 1.49 1.49 1.46 1.47 1.52 1.59 1.62 1.52 1.48 1.44 1.41 1.44 1.43 1.29 1.35 1.44 1.48 1.46 1.48 1.46 1.40 1.36 1.31 1.26 1.21 1.11 1.09 1.05 1.06 1.11 1.12 1.13 1.10 1.10 1.14 1.10 1.12 1.19 1.30 1.38 1.40 1.49
0.31 0.35 0.37 0.33 0.30 0.32 0.32 0.33 0.35 0.34 0.33 0.34 0.29 0.23 0.25 0.24 0.24 0.25 0.24 0.25 0.25 0.25 0.32 0.45 0.53 0.50 0.41 0.64 0.73 0.76 0.73 0.84 0.96 1.01 1.08 1.12 1.14 1.17 1.23 1.29 1.35 1.36 1.39 1.42 1.42 1.41 1.45 1.56 1.57 1.61 1.54 1.52 1.52 1.54 1.54 1.51 1.42 1.32 1.34 1.36 1.34 1.32 1.30 1.24 1.18 1.15 1.13 1.17 1.19 1.18 1.19 1.16 1.12 1.15 1.15 1.12 1.12 1.17 1.19 1.16 1.15 1.15 1.14 1.23 1.24 1.32
0.26 0.30 0.30 0.31 0.34 0.34 0.33 0.32 0.35 0.34 0.33 0.32 0.31 0.24 0.24 0.24 0.24 0.23 0.24 0.27 0.26 0.32 0.49 0.53 0.51 0.56 0.35 0.57 0.80 0.88 0.94 0.98 0.95 0.91 0.97 1.04 1.09 1.13 1.22 1.30 1.32 1.35 1.36 1.37 1.38 1.39 1.46 1.53 1.56 1.58 1.49 1.49 1.52 1.59 1.55 1.51 1.45 1.41 1.42 1.39 1.27 1.24 1.24 1.24 1.25 1.24 1.23 1.24 1.25 1.26 1.25 1.22 1.21 1.21 1.21 1.19 1.17 1.21 1.22 1.24 1.20 1.19 1.17 1.17 1.17 1.17
0.22 0.25 0.30 0.31 0.32 0.31 0.30 0.28 0.30 0.30 0.30 0.28 0.29 0.25 0.20 0.18 0.19 0.17 0.25 0.24 0.28 0.29 0.45 0.54 0.50 0.45 0.51 0.67 0.82 0.91 0.92 0.98 1.02 1.01 1.02 1.07 1.11 1.16 1.21 1.24 1.28 1.31 1.33 1.36 1.39 1.43 1.45 1.45 1.47 1.48 1.46 1.49 1.51 1.45 1.44 1.40 1.37 1.34 1.29 1.26 1.21 1.24 1.33 1.33 1.33 1.28 1.25 1.24 1.23 1.24 1.25 1.25 1.24 1.21 1.21 1.21 1.21 1.26 1.25 1.24 1.21 1.18 1.15 1.16 1.10 1.14
0.21 0.24 0.26 0.28 0.32 0.32 0.31 0.24 0.25 0.23 0.24 0.21 0.21 0.22 0.20 0.16 0.16 0.15 0.22 0.28 0.31 0.43 0.54 0.52 0.56 0.45 0.63 0.74 0.94 0.90 0.95 1.00 1.06 1.11 1.13 1.13 1.15 1.15 1.17 1.22 1.24 1.28 1.32 1.37 1.40 1.42 1.42 1.49 1.52 1.51 1.50 1.51 1.46 1.41 1.36 1.33 1.28 1.25 1.23 1.26 1.25 1.28 1.34 1.35 1.33 1.32 1.30 1.28 1.26 1.25 1.25 1.26 1.24 1.21 1.22 1.21 1.25 1.29 1.30 1.29 1.25 1.21 1.19 1.17 1.17 1.18
0.19 0.18 0.22 0.26 0.26 0.32 0.31 0.28 0.26 0.22 0.23 0.22 0.22 0.21 0.21 0.19 0.18 0.17 0.22 0.23 0.27 0.35 0.45 0.56 0.51 0.47 0.48 0.64 1.03 1.02 1.08 1.10 1.15 1.17 1.18 1.20 1.21 1.21 1.21 1.22 1.25 1.29 1.34 1.40 1.39 1.39 1.43 1.51 1.52 1.51 1.50 1.45 1.39 1.33 1.29 1.27 1.26 1.26 1.25 1.26 1.27 1.28 1.31 1.31 1.31 1.32 1.31 1.31 1.30 1.29 1.28 1.27 1.27 1.24 1.23 1.22 1.27 1.30 1.30 1.30 1.28 1.27 1.27 1.24 1.27 1.24
0.21 0.22 0.28 0.31 0.31 0.34 0.31 0.31 0.32 0.26 0.25 0.25 0.25 0.24 0.21 0.20 0.24 0.22 0.25 0.28 0.34 0.36 0.41 0.50 0.51 0.66 0.66 0.98 1.06 1.13 1.10 1.09 1.14 1.15 1.18 1.16 1.20 1.22 1.19 1.17 1.22 1.25 1.29 1.32 1.32 1.34 1.35 1.44 1.49 1.51 1.48 1.40 1.27 1.21 1.24 1.25 1.27 1.29 1.32 1.35 1.38 1.38 1.39 1.38 1.32 1.31 1.34 1.35 1.35 1.33 1.30 1.27 1.26 1.26 1.25 1.24 1.25 1.28 1.31 1.31 1.27 1.22 1.23 1.28 1.30 1.30
0.20 0.19 0.27 0.31 0.34 0.32 0.32 0.33 0.32 0.32 0.22 0.23 0.23 0.20 0.21 0.24 0.24 0.27 0.33 0.36 0.40 0.36 0.36 0.61 0.60 0.70 0.88 0.93 1.02 1.05 1.02 1.03 1.10 1.12 1.15 1.15 1.19 1.19 1.15 1.17 1.21 1.26 1.29 1.30 1.29 1.28 1.27 1.33 1.38 1.43 1.39 1.23 1.19 1.27 1.33 1.39 1.43 1.44 1.45 1.44 1.43 1.43 1.43 1.44 1.43 1.38 1.39 1.42 1.40 1.36 1.34 1.31 1.26 1.25 1.25 1.24 1.22 1.24 1.28 1.27 1.24 1.20 1.17 1.18 1.21 1.24
0.19 0.24 0.29 0.29 0.29 0.31 0.33 0.34 0.33 0.33 0.30 0.26 0.22 0.24 0.27 0.28 0.26 0.22 0.21 0.27 0.29 0.26 0.43 0.59 0.50 0.56 0.61 0.47 0.94 0.94 0.91 1.00 1.02 1.07 1.11 1.14 1.18 1.13 1.15 1.18 1.20 1.23 1.26 1.27 1.28 1.29 1.30 1.31 1.31 1.29 1.22 1.23 1.29 1.36 1.41 1.45 1.47 1.47 1.47 1.48 1.47 1.46 1.46 1.49 1.49 1.45 1.44 1.44 1.43 1.41 1.38 1.34 1.29 1.27 1.26 1.25 1.22 1.23 1.20 1.17 1.15 1.13 1.12 1.13 1.14 1.14
0.28 0.23 0.27 0.29 0.27 0.29 0.32 0.33 0.31 0.34 0.33 0.27 0.26 0.30 0.24 0.24 0.22 0.30 0.27 0.24 0.29 0.32 0.40 0.53 0.61 0.60 0.65 0.61 0.84 0.82 0.85 0.91 0.98 1.04 1.06 1.07 1.10 1.11 1.15 1.18 1.21 1.22 1.20 1.19 1.21 1.23 1.24 1.24 1.23 1.21 1.23 1.32 1.40 1.43 1.46 1.47 1.49 1.49 1.50 1.55 1.54 1.50 1.52 1.54 1.54 1.50 1.45 1.45 1.44 1.43 1.40 1.35 1.31 1.30 1.26 1.23 1.22 1.18 1.13 1.10 1.08 1.07 1.10 1.12 1.11 1.08
0.29 0.24 0.24 0.30 0.28 0.28 0.30 0.28 0.26 0.29 0.32 0.32 0.31 0.28 0.31 0.31 0.29 0.27 0.29 0.33 0.37 0.35 0.40 0.44 0.55 0.50 0.78 0.80 0.88 0.87 0.90 0.92 0.97 1.00 1.04 1.08 1.10 1.13 1.17 1.19 1.18 1.17 1.17 1.18 1.21 1.23 1.25 1.28 1.28 1.30 1.33 1.35 1.40 1.42 1.44 1.48 1.48 1.49 1.53 1.55 1.59 1.57 1.55 1.53 1.51 1.45 1.36 1.40 1.40 1.39 1.36 1.31 1.28 1.27 1.24 1.21 1.18 1.14 1.10 1.08 1.05 1.05 1.05 1.06 1.09 1.07
0.27 0.30 0.23 0.28 0.31 0.29 0.25 0.29 0.30 0.28 0.26 0.28 0.27 0.26 0.29 0.31 0.38 0.40 0.42 0.39 0.36 0.37 0.38 0.38 0.41 0.55 0.80 0.99 0.95 0.93 0.96 0.99 0.98 0.99 1.05 1.09 1.14 1.18 1.20 1.18 1.17 1.19 1.20 1.21 1.24 1.27 1.30 1.35 1.42 1.45 1.47 1.49 1.51 1.50 1.50 1.50 1.50 1.51 1.51 1.49 1.50 1.48 1.48 1.47 1.44 1.37 1.34 1.35 1.33 1.30 1.25 1.21 1.20 1.18 1.19 1.16 1.14 1.09 1.08 1.06 1.05 1.04 1.05 1.06 1.02 1.05
0.27 0.28 0.24 0.26 0.26 0.26 0.31 0.34 0.36 0.33 0.32 0.30 0.27 0.31 0.32 0.30 0.32 0.30 0.31 0.49 0.45 0.41 0.38 0.39 0.39 0.61 0.90 1.10 1.05 0.99 1.05 1.06 1.08 1.05 1.06 1.12 1.15 1.16 1.17 1.19 1.23 1.22 1.27 1.30 1.33 1.35 1.37 1.43 1.50 1.55 1.57 1.56 1.51 1.49 1.48 1.51 1.49 1.46 1.45 1.47 1.47 1.46 1.45 1.43 1.39 1.34 1.31 1.29 1.25 1.22 1.19 1.16 1.15 1.13 1.12 1.08 1.05 1.03 1.00 1.00 0.99 1.00 1.01 0.98 1.00 1.04
0.31 0.30 0.26 0.24 0.26 0.27 0.31 0.39 0.40 0.37 0.36 0.36 0.36 0.38 0.36 0.37 0.37 0.36 0.32 0.44 0.50 0.51 0.56 0.53 0.48 0.59 0.98 1.10 1.08 1.06 1.09 1.12 1.16 1.14 1.10 1.13 1.16 1.19 1.21 1.25 1.29 1.32 1.32 1.33 1.32 1.35 1.41 1.44 1.47 1.50 1.52 1.51 1.48 1.44 1.46 1.49 1.48 1.45 1.44 1.44 1.45 1.43 1.43 1.41 1.34 1.32 1.28 1.24 1.20 1.16 1.15 1.13 1.10 1.08 1.04 1.01 1.00 0.98 0.97 0.97 0.94 0.93 0.89 0.90 0.94 0.99
0.34 0.27 0.25 0.26 0.29 0.32 0.36 0.40 0.41 0.42 0.39 0.38 0.45 0.43 0.41 0.38 0.41 0.41 0.42 0.47 0.43 0.49 0.47 0.50 0.44 0.58 0.95 1.11 1.09 1.10 1.12 1.13 1.15 1.15 1.10 1.13 1.17 1.22 1.25 1.25 1.30 1.31 1.32 1.31 1.33 1.37 1.41 1.43 1.44 1.47 1.48 1.43 1.39 1.39 1.43 1.45 1.45 1.43 1.43 1.44 1.43 1.40 1.38 1.33 1.29 1.26 1.21 1.17 1.12 1.10 1.07 1.06 1.04 0.98 0.95 0.92 0.91 0.89 0.90 0.90 0.88 0.86 0.85 0.86 0.90 0.91
0.26 0.30 0.25 0.24 0.24 0.26 0.29 0.34 0.35 0.40 0.39 0.39 0.44 0.47 0.47 0.51 0.53 0.55 0.55 0.56 0.43 0.50 0.49 0.44 0.39 0.52 0.89 1.08 1.10 1.08 1.05 1.02 1.05 1.11 1.13 1.09 1.17 1.21 1.24 1.28 1.31 1.31 1.30 1.30 1.33 1.38 1.40 1.39 1.40 1.43 1.44 1.40 1.42 1.43 1.40 1.39 1.39 1.41 1.40 1.40 1.37 1.34 1.31 1.25 1.23 1.18 1.13 1.09 1.04 1.01 0.97 0.94 0.91 0.86 0.85 0.85 0.83 0.81 0.81 0.82 0.83 0.83 0.84 0.85 0.85 0.89
0.27 0.29 0.26 0.22 0.20 0.19 0.21 0.24 0.28 0.31 0.35 0.40 0.51 0.47 0.48 0.47 0.48 0.45 0.42 0.47 0.40 0.54 0.56 0.48 0.47 0.68 0.91 1.03 1.00 0.99 0.98 1.00 1.07 1.09 1.14 1.16 1.15 1.18 1.24 1.29 1.30 1.28 1.27 1.30 1.32 1.32 1.33 1.39 1.43 1.43 1.42 1.42 1.42 1.40 1.38 1.39 1.39 1.37 1.36 1.33 1.31 1.24 1.19 1.16 1.15 1.12 1.07 1.03 0.97 0.92 0.88 0.85 0.82 0.80 0.80 0.80 0.77 0.77 0.79 0.82 0.84 0.85 0.87 0.89 0.87 0.89
0.27 0.28 0.27 0.25 0.23 0.24 0.26 0.30 0.36 0.38 0.40 0.39 0.42 0.42 0.45 0.50 0.50 0.48 0.49 0.43 0.40 0.53 0.51 0.56 0.56 0.64 0.76 0.85 0.87 0.89 0.93 0.94 0.97 1.01 1.03 1.08 1.16 1.21 1.25 1.29 1.29 1.28 1.29 1.30 1.31 1.33 1.35 1.35 1.39 1.43 1.44 1.43 1.40 1.38 1.37 1.34 1.31 1.29 1.26 1.21 1.18 1.16 1.12 1.11 1.09 1.05 1.00 0.96 0.90 0.86 0.81 0.78 0.77 0.78 0.76 0.77 0.78 0.80 0.82 0.84 0.86 0.86 0.86 0.90 0.90 0.90
0.26 0.25 0.27 0.29 0.30 0.29 0.32 0.33 0.40 0.42 0.39 0.43 0.43 0.45 0.49 0.47 0.47 0.42 0.39 0.43 0.59 0.52 0.46 0.62 0.71 0.62 0.69 0.77 0.82 0.85 0.90 0.94 0.98 0.99 1.01 1.09 1.12 1.19 1.24 1.27 1.26 1.25 1.29 1.32 1.33 1.32 1.32 1.36 1.40 1.39 1.38 1.34 1.32 1.30 1.27 1.26 1.23 1.18 1.13 1.09 1.10 1.10 1.09 1.09 1.04 0.97 0.93 0.90 0.84 0.79 0.75 0.75 0.78 0.78 0.78 0.80 0.81 0.81 0.83 0.84 0.85 0.86 0.88 0.90 0.89 0.89
0.25 0.23 0.26 0.28 0.30 0.33 0.40 0.43 0.44 0.45 0.48 0.49 0.50 0.50 0.47 0.49 0.48 0.43 0.49 0.56 0.57 0.48 0.46 0.63 0.71 0.64 0.70 0.77 0.83 0.86 0.91 0.93 0.97 0.99 1.03 1.11 1.16 1.18 1.17 1.16 1.18 1.20 1.22 1.22 1.25 1.28 1.30 1.30 1.30 1.27 1.24 1.22 1.21 1.18 1.17 1.15 1.13 1.11 1.09 1.07 1.06 1.06 1.04 1.02 0.94 0.88 0.84 0.80 0.75 0.71 0.70 0.72 0.75 0.76 0.77 0.77 0.76 0.76 0.77 0.80 0.82 0.85 0.87 0.88 0.90 0.92
0.25 0.24 0.27 0.29 0.30 0.34 0.43 0.46 0.49 0.46 0.50 0.52 0.53 0.52 0.53 0.51 0.51 0.52 0.56 0.63 0.61 0.57 0.63 0.67 0.71 0.70 0.77 0.81 0.87 0.94 1.01 1.02 1.02 1.06 1.08 1.08 1.08 1.09 1.09 1.09 1.11 1.15 1.17 1.18 1.20 1.22 1.24 1.21 1.17 1.17 1.16 1.14 1.13 1.11 1.10 1.07 1.05 1.03 1.01 1.00 1.00 0.98 0.97 0.92 0.85 0.79 0.75 0.70 0.67 0.69 0.71 0.73 0.74 0.74 0.76 0.75 0.73 0.74 0.76 0.78 0.81 0.83 0.85 0.87 0.89 0.92
0.24 0.26 0.30 0.29 0.29 0.34 0.49 0.48 0.49 0.50 0.48 0.45 0.51 0.53 0.53 0.55 0.57 0.60 0.63 0.68 0.70 0.68 0.70 0.70 0.69 0.67 0.89 0.97 0.94 1.04 1.08 1.08 1.03 0.99 1.00 1.05 1.08 1.08 1.06 1.05 1.07 1.09 1.13 1.14 1.17 1.18 1.19 1.17 1.15 1.14 1.11 1.10 1.09 1.08 1.04 1.01 0.99 0.99 0.96 0.93 0.91 0.90 0.90 0.85 0.77 0.72 0.70 0.68 0.65 0.67 0.70 0.71 0.71 0.73 0.74 0.77 0.78 0.77 0.76 0.78 0.82 0.85 0.87 0.89 0.90 0.92
0.23 0.26 0.32 0.31 0.28 0.32 0.46 0.45 0.49 0.52 0.51 0.49 0.51 0.55 0.57 0.56 0.54 0.63 0.61 0.68 0.63 0.62 0.67 0.68 0.63 0.64 0.84 0.97 1.01 1.03 1.03 1.00 0.97 0.97 0.98 1.02 1.06 1.04 1.00 1.02 1.04 1.06 1.08 1.11 1.13 1.14 1.14 1.14 1.14 1.10 1.07 1.06 1.06 1.03 0.98 0.95 0.93 0.89 0.86 0.86 0.86 0.86 0.84 0.77 0.71 0.64 0.61 0.66 0.67 0.66 0.66 0.66 0.67 0.68 0.71 0.75 0.73 0.74 0.75 0.77 0.80 0.84 0.87 0.89 0.90 0.93
0.22 0.23 0.25 0.30 0.25 0.30 0.42 0.43 0.43 0.45 0.44 0.43 0.50 0.59 0.63 0.63 0.64 0.67 0.69 0.72 0.68 0.68 0.62 0.56 0.58 0.76 0.85 0.96 0.94 0.97 0.99 0.98 0.95 0.94 0.93 0.99 1.02 1.01 1.00 0.99 1.01 1.03 1.04 1.07 1.07 1.08 1.08 1.07 1.06 1.06 1.06 1.05 1.01 0.95 0.91 0.89 0.85 0.82 0.84 0.81 0.80 0.78 0.73 0.69 0.64 0.61 0.59 0.62 0.64 0.63 0.63 0.62 0.60 0.61 0.67 0.70 0.71 0.72 0.71 0.72 0.75 0.79 0.83 0.85 0.91 0.93
0.24 0.28 0.28 0.32 0.25 0.30 0.36 0.40 0.42 0.38 0.31 0.39 0.64 0.69 0.66 0.63 0.63 0.58 0.61 0.69 0.77 0.78 0.70 0.75 0.76 0.87 0.92 0.95 0.93 0.92 0.93 0.93 0.94 0.97 0.99 0.94 0.95 0.98 0.99 0.98 0.97 0.97 0.99 1.01 1.02 1.02 1.02 1.03 1.04 1.05 1.03 0.98 0.93 0.88 0.86 0.86 0.83 0.82 0.80 0.76 0.72 0.68 0.65 0.60 0.63 0.64 0.59 0.56 0.57 0.58 0.58 0.60 0.60 0.59 0.66 0.70 0.70 0.70 0.69 0.70 0.72 0.77 0.81 0.84 0.86 0.85
0.29 0.32 0.32 0.36 0.31 0.32 0.34 0.34 0.30 0.29 0.38 0.67 0.79 0.79 0.76 0.73 0.72 0.70 0.74 0.80 0.82 0.83 0.81 0.79 0.84 0.88 0.94 0.99 0.97 0.94 0.92 0.92 0.97 0.95 0.98 1.00 0.97 0.94 0.92 0.94 0.94 0.95 0.96 0.98 0.98 0.97 1.00 1.01 1.01 0.97 0.89 0.85 0.82 0.81 0.82 0.80 0.79 0.76 0.71 0.69 0.66 0.63 0.59 0.59 0.58 0.54 0.52 0.49 0.53 0.58 0.58 0.62 0.62 0.60 0.66 0.67 0.68 0.68 0.69 0.70 0.72 0.73 0.75 0.77 0.77 0.77
0.36 0.35 0.35 0.35 0.35 0.38 0.34 0.34 0.27 0.41 0.65 0.78 0.81 0.82 0.86 0.82 0.79 0.73 0.73 0.84 0.88 0.86 0.85 0.81 0.89 0.96 0.99 0.97 0.97 0.95 0.89 0.90 0.93 0.96 0.96 0.99 1.00 0.94 0.91 0.90 0.94 0.96 0.94 0.95 0.91 0.94 0.98 0.96 0.91 0.85 0.79 0.79 0.79 0.81 0.80 0.75 0.73 0.69 0.68 0.68 0.61 0.57 0.55 0.53 0.50 0.49 0.50 0.49 0.56 0.59 0.59 0.63 0.62 0.59 0.63 0.64 0.65 0.66 0.67 0.70 0.70 0.68 0.71 0.71 0.74 0.77
0.38 0.39 0.37 0.36 0.40 0.35 0.43 0.42 0.43 0.64 0.64 0.70 0.70 0.71 0.73 0.65 0.66 0.63 0.55 0.72 0.90 0.93 0.91 0.89 0.95 0.98 0.97 0.95 0.90 0.86 0.88 0.89 0.84 0.85 0.96 0.97 0.99 1.00 0.98 0.98 0.99 0.95 0.97 0.98 0.97 0.97 1.01 1.00 0.92 0.82 0.79 0.81 0.82 0.81 0.76 0.74 0.70 0.68 0.68 0.62 0.57 0.54 0.52 0.51 0.50 0.52 0.50 0.51 0.57 0.58 0.59 0.63 0.60 0.57 0.61 0.61 0.61 0.64 0.67 0.67 0.67 0.69 0.71 0.68 0.70 0.71
0.39 0.34 0.38 0.33 0.38 0.44 0.39 0.39 0.44 0.46 0.41 0.57 0.71 0.81 0.82 0.82 0.82 0.81 0.71 0.69 0.94 0.98 1.03 0.98 0.94 0.92 0.89 0.89 0.87 0.87 0.86 0.76 0.68 0.72 0.84 0.91 0.97 0.98 1.02 0.99 0.97 0.96 0.99 1.01 1.02 1.03 1.01 0.93 0.85 0.82 0.83 0.83 0.81 0.80 0.78 0.75 0.70 0.67 0.62 0.58 0.52 0.52 0.51 0.52 0.52 0.53 0.53 0.53 0.56 0.60 0.62 0.62 0.60 0.60 0.62 0.62 0.62 0.64 0.67 0.69 0.70 0.69 0.71 0.67 0.66 0.65
0.47 0.45 0.43 0.36 0.40 0.41 0.40 0.38 0.42 0.41 0.52 0.69 0.70 0.78 0.86 0.90 0.88 0.88 0.67 0.60 0.93 1.02 1.05 1.00 0.91 0.89 0.87 0.86 0.86 0.87 0.78 0.65 0.65 0.72 0.82 0.88 0.93 0.96 0.93 0.92 0.92 0.94 0.97 0.99 0.97 0.94 0.92 0.86 0.83 0.83 0.84 0.81 0.77 0.78 0.78 0.75 0.67 0.61 0.56 0.51 0.51 0.53 0.52 0.53 0.54 0.54 0.55 0.55 0.58 0.63 0.65 0.62 0.62 0.66 0.64 0.65 0.64 0.66 0.65 0.65 0.65 0.67 0.67 0.65 0.64 0.62
0.50 0.48 0.46 0.42 0.42 0.45 0.46 0.43 0.43 0.55 0.51 0.66 0.76 0.83 0.91 0.96 0.92 0.75 0.47 0.54 0.92 1.04 1.03 0.97 0.89 0.88 0.90 0.92 0.90 0.86 0.77 0.64 0.65 0.75 0.86 0.88 0.90 0.93 0.92 0.91 0.91 0.91 0.93 0.94 0.94 0.91 0.86 0.84 0.80 0.80 0.79 0.77 0.76 0.77 0.75 0.70 0.62 0.55 0.53 0.53 0.54 0.53 0.52 0.54 0.55 0.55 0.58 0.60 0.63 0.63 0.65 0.62 0.63 0.69 0.66 0.66 0.65 0.65 0.63 0.63 0.63 0.62 0.60 0.60 0.60 0.58
0.48 0.50 0.49 0.45 0.47 0.49 0.44 0.46 0.51 0.55 0.71 0.79 0.81 0.88 0.92 0.95 0.79 0.52 0.42 0.66 0.95 0.97 0.99 0.97 0.94 0.95 0.95 0.91 0.90 0.81 0.83 0.81 0.81 0.86 0.90 0.90 0.87 0.89 0.93 0.95 0.94 0.93 0.90 0.87 0.83 0.79 0.75 0.77 0.79 0.78 0.76 0.74 0.72 0.69 0.65 0.61 0.54 0.50 0.52 0.57 0.55 0.53 0.53 0.55 0.56 0.56 0.61 0.62 0.60 0.61 0.62 0.61 0.62 0.68 0.68 0.69 0.65 0.65 0.62 0.61 0.59 0.59 0.57 0.56 0.55 0.54
0.51 0.53 0.58 0.57 0.50 0.48 0.51 0.45 0.47 0.56 0.72 0.83 0.89 0.88 0.91 0.75 0.52 0.50 0.83 1.02 0.94 0.86 0.86 0.89 0.89 0.93 0.90 0.82 0.80 0.79 0.79 0.83 0.86 0.87 0.86 0.86 0.86 0.87 0.89 0.90 0.88 0.87 0.87 0.85 0.80 0.74 0.73 0.75 0.74 0.73 0.73 0.74 0.69 0.63 0.59 0.57 0.51 0.50 0.55 0.56 0.53 0.53 0.57 0.57 0.57 0.58 0.60 0.60 0.59 0.60 0.58 0.59 0.66 0.71 0.69 0.69 0.67 0.63 0.61 0.60 0.59 0.58 0.56 0.55 0.52 0.50
0.57 0.52 0.52 0.51 0.60 0.57 0.53 0.45 0.42 0.35 0.67 0.83 0.88 0.82 0.87 0.62 0.70 0.88 0.93 0.92 0.87 0.83 0.80 0.80 0.81 0.83 0.82 0.77 0.77 0.77 0.79 0.81 0.82 0.83 0.83 0.85 0.84 0.84 0.85 0.85 0.82 0.79 0.78 0.74 0.68 0.70 0.70 0.69 0.69 0.68 0.69 0.73 0.69 0.63 0.60 0.59 0.54 0.52 0.55 0.55 0.55 0.57 0.58 0.59 0.56 0.57 0.57 0.57 0.56 0.56 0.57 0.63 0.67 0.70 0.69 0.68 0.68 0.64 0.61 0.61 0.58 0.56 0.55 0.52 0.50 0.49
0.73 0.55 0.55 0.60 0.68 0.51 0.49 0.43 0.45 0.61 0.78 0.88 0.81 0.66 0.79 0.81 0.89 0.90 0.83 0.74 0.80 0.81 0.79 0.78 0.78 0.80 0.80 0.78 0.76 0.77 0.79 0.79 0.81 0.82 0.82 0.83 0.83 0.83 0.83 0.81 0.79 0.76 0.70 0.67 0.67 0.69 0.71 0.68 0.67 0.65 0.69 0.72 0.68 0.64 0.62 0.61 0.59 0.59 0.58 0.54 0.58 0.56 0.57 0.55 0.51 0.52 0.55 0.54 0.54 0.56 0.57 0.59 0.62 0.68 0.69 0.68 0.66 0.63 0.62 0.59 0.58 0.55 0.54 0.53 0.51 0.49
0.66 0.56 0.62 0.51 0.69 0.60 0.54 0.60 0.73 0.80 0.82 0.82 0.78 0.77 0.78 0.83 0.85 0.87 0.81 0.78 0.77 0.81 0.85 0.78 0.75 0.76 0.77 0.76 0.77 0.78 0.78 0.79 0.78 0.79 0.77 0.78 0.80 0.80 0.79 0.78 0.73 0.66 0.64 0.63 0.66 0.70 0.69 0.66 0.63 0.63 0.63 0.63 0.63 0.60 0.61 0.65 0.64 0.64 0.58 0.56 0.57 0.56 0.56 0.53 0.52 0.51 0.50 0.52 0.53 0.55 0.55 0.55 0.57 0.58 0.58 0.61 0.64 0.60 0.59 0.57 0.58 0.56 0.55 0.55 0.52 0.51
0.73 0.72 0.74 0.67 0.65 0.78 0.82 0.81 0.84 0.81 0.80 0.79 0.81 0.81 0.79 0.79 0.86 0.86 0.85 0.80 0.83 0.84 0.84 0.79 0.77 0.75 0.75 0.76 0.71 0.72 0.72 0.74 0.74 0.76 0.76 0.77 0.77 0.77 0.73 0.68 0.65 0.65 0.64 0.65 0.66 0.67 0.67 0.67 0.64 0.64 0.60 0.57 0.60 0.62 0.63 0.67 0.67 0.64 0.59 0.59 0.58 0.56 0.55 0.51 0.51 0.49 0.48 0.52 0.52 0.53 0.53 0.52 0.54 0.53 0.52 0.51 0.54 0.57 0.60 0.58 0.60 0.61 0.58 0.55 0.53 0.53
0.74 0.75 0.68 0.58 0.70 0.62 0.56 0.80 0.79 0.76 0.77 0.78 0.77 0.83 0.86 0.85 0.86 0.87 0.85 0.84 0.82 0.83 0.81 0.80 0.77 0.75 0.73 0.71 0.68 0.66 0.67 0.70 0.70 0.71 0.71 0.69 0.67 0.65 0.64 0.63 0.63 0.63 0.63 0.63 0.64 0.64 0.65 0.63 0.62 0.60 0.55 0.55 0.58 0.62 0.63 0.66 0.66 0.67 0.64 0.60 0.57 0.55 0.52 0.50 0.49 0.47 0.47 0.48 0.51 0.52 0.51 0.53 0.50 0.48 0.49 0.51 0.55 0.56 0.57 0.59 0.60 0.60 0.57 0.56 0.53 0.53
0.62 0.82 0.66 0.66 0.63 0.57 0.58 0.72 0.77 0.81 0.80 0.82 0.83 0.81 0.80 0.81 0.82 0.84 0.83 0.83 0.81 0.79 0.76 0.71 0.69 0.66 0.67 0.63 0.64 0.63 0.65 0.67 0.63 0.62 0.62 0.62 0.63 0.63 0.63 0.63 0.64 0.63 0.64 0.65 0.66 0.67 0.66 0.64 0.61 0.58 0.52 0.53 0.58 0.61 0.62 0.64 0.64 0.62 0.63 0.61 0.57 0.54 0.50 0.49 0.46 0.44 0.45 0.48 0.48 0.47 0.52 0.53 0.52 0.51 0.50 0.52 0.55 0.54 0.54 0.54 0.56 0.57 0.56 0.56 0.54 0.51
0.72 0.72 0.55 0.63 0.57 0.64 0.71 0.73 0.75 0.77 0.77 0.78 0.81 0.81 0.80 0.79 0.78 0.78 0.78 0.74 0.69 0.64 0.64 0.66 0.66 0.63 0.62 0.62 0.65 0.63 0.61 0.64 0.66 0.65 0.63 0.64 0.65 0.66 0.64 0.65 0.64 0.63 0.64 0.66 0.68 0.69 0.66 0.64 0.63 0.55 0.51 0.52 0.56 0.59 0.59 0.58 0.57 0.57 0.59 0.58 0.55 0.53 0.49 0.46 0.45 0.46 0.46 0.47 0.40 0.46 0.53 0.54 0.55 0.54 0.53 0.54 0.57 0.56 0.54 0.53 0.55 0.55 0.58 0.61 0.61 0.58
0.68 0.58 0.68 0.63 0.54 0.52 0.53 0.60 0.68 0.56 0.57 0.69 0.75 0.79 0.78 0.76 0.71 0.66 0.65 0.63 0.62 0.62 0.64 0.62 0.62 0.65 0.66 0.67 0.68 0.68 0.64 0.65 0.66 0.65 0.63 0.65 0.67 0.64 0.63 0.62 0.64 0.66 0.67 0.70 0.70 0.71 0.69 0.69 0.67 0.56 0.53 0.48 0.52 0.55 0.56 0.55 0.55 0.57 0.57 0.56 0.53 0.53 0.49 0.46 0.46 0.46 0.44 0.44 0.42 0.47 0.52 0.54 0.56 0.55 0.55 0.54 0.54 0.51 0.52 0.57 0.59 0.59 0.55 0.54 0.62 0.62
0.66 0.68 0.65 0.57 0.53 0.53 0.66 0.71 0.75 0.73 0.73 0.75 0.76 0.77 0.76 0.73 0.67 0.62 0.61 0.63 0.64 0.64 0.63 0.61 0.61 0.64 0.66 0.69 0.72 0.69 0.67 0.66 0.64 0.66 0.65 0.65 0.66 0.66 0.66 0.65 0.64 0.66 0.68 0.72 0.71 0.72 0.69 0.68 0.67 0.58 0.57 0.57 0.55 0.54 0.56 0.56 0.57 0.55 0.56 0.54 0.52 0.53 0.50 0.48 0.46 0.43 0.45 0.44 0.41 0.48 0.52 0.54 0.54 0.56 0.57 0.54 0.53 0.51 0.51 0.50 0.54 0.57 0.59 0.60 0.63 0.60
Wind_Speed
4 3 3 4 5 5 7 6 5 5 5 5 5 3 3 4 5 2 1 2 3 5 6 5 5 4 3 4 5 6 7 7 8 8 8 8 8 7 5 5 5 6 6 7 7 6 6 6 7 8 7 8 8 7 7 8 7 7 7 7 7 7 7 7 6 6 6 6 6 6 6 6 6 7 7 7 7 7 7 6 6 6 6 6 6 6
3 3 5 5 5 6 7 8 7 6 5 5 5 5 4 4 4 2 2 2 2 4 6 5 5 3 3 5 6 7 7 7 8 8 9 9 8 8 7 5 5 6 6 7 7 6 6 7 8 9 8 8 8 8 8 8 8 8 7 6 6 7 7 7 7 7 7 7 6 6 6 6 6 7 7 7 7 7 6 6 6 6 6 6 6 6
3 5 6 4 5 6 7 8 8 5 2 5 7 5 2 3 4 4 3 1 2 4 5 5 4 4 4 5 7 7 6 7 8 8 8 8 8 8 7 6 6 6 6 6 6 6 6 7 8 9 8 7 8 8 8 8 8 8 6 6 7 7 8 7 7 7 7 7 7 7 6 6 6 7 7 7 7 7 7 6 6 6 6 6 6 6
6 7 7 6 7 7 6 7 6 3 2 6 7 5 2 2 3 4 3 1 3 5 4 3 3 4 5 6 8 8 6 7 8 8 8 8 7 7 6 6 5 5 5 5 6 6 7 7 8 8 8 7 8 8 8 8 8 7 6 6 7 8 8 7 8 7 7 7 7 7 7 7 7 7 7 7 7 7 7 7 7 6 5 6 6 6
8 10 9 8 7 6 6 7 5 2 4 6 5 5 4 3 3 4 3 1 4 6 3 2 3 4 5 5 6 7 7 7 8 8 9 9 8 7 7 6 6 5 5 5 6 6 7 7 7 7 7 7 8 8 8 7 7 7 7 7 7 8 7 7 8 8 7 7 7 7 7 7 7 7 7 7 8 8 8 8 8 7 6 6 7 7
10 10 9 7 7 6 6 7 4 1 3 5 4 4 3 3 5 4 1 1 3 4 3 0 3 5 6 4 3 5 6 7 8 9 9 9 9 8 8 7 7 6 6 6 6 6 6 7 6 7 7 6 6 7 7 7 7 7 7 7 7 7 7 7 8 8 7 7 7 7 7 7 7 8 8 8 8 8 8 8 8 7 7 7 7 7
9 9 8 8 7 6 5 4 2 1 2 4 5 5 4 4 4 0 2 2 2 4 6 3 3 5 5 4 3 4 6 7 8 9 9 9 9 9 9 8 7 7 7 6 6 6 6 7 7 7 6 5 6 7 7 6 7 7 7 7 7 7 7 8 8 8 7 7 7 7 8 8 8 8 8 8 8 8 8 9 9 8 8 8 8 8
9 9 9 8 6 5 4 4 4 3 4 6 6 6 6 4 4 2 2 3 3 4 4 4 4 4 4 4 3 4 5 6 8 9 10 9 9 9 9 8 7 7 7 6 6 6 6 7 8 7 4 3 5 7 7 7 7 8 8 8 7 7 7 8 7 7 8 8 8 8 8 8 8 8 8 8 8 8 8 9 9 9 9 9 9 9
9 9 8 7 6 5 5 5 6 5 5 7 7 6 6 3 2 3 3 5 6 4 3 5 4 4 4 4 4 4 4 5 7 9 9 8 8 9 9 8 8 8 9 7 5 5 5 6 7 7 3 4 5 6 7 7 6 7 7 8 8 8 8 8 8 8 8 8 8 8 8 9 9 9 9 9 8 8 9 9 9 10 9 10 10 10
11 11 10 8 8 8 8 8 7 6 6 7 6 6 6 4 4 6 7 8 7 4 3 6 3 3 4 5 4 5 6 6 8 9 8 8 9 9 8 8 8 9 9 8 5 4 5 5 6 5 2 3 4 5 7 7 6 5 5 6 7 8 8 8 8 9 9 9 8 8 9 9 9 9 9 9 9 9 9 9 9 10 10 9 10 10
13 13 11 10 10 10 10 9 7 6 7 5 5 6 5 6 8 8 8 7 4 3 4 5 3 2 4 5 4 5 7 7 6 8 8 9 10 9 9 9 9 10 9 7 5 3 4 4 4 4 1 2 3 4 6 6 6 4 4 5 6 7 8 8 9 9 9 9 9 9 9 9 10 10 10 10 10 10 10 10 10 11 11 10 10 10
12 12 10 10 10 10 10 9 8 7 6 5 5 5 5 8 9 8 8 3 1 3 4 3 1 3 5 5 5 7 8 6 4 6 8 8 9 9 9 9 10 10 9 8 6 5 4 3 3 3 1 1 2 4 5 5 5 4 4 5 6 7 8 8 9 9 9 10 10 10 10 10 10 10 11 11 11 12 11 11 11 11 11 11 11 11
10 11 10 9 9 9 8 9 9 8 7 6 6 5 5 8 7 7 6 2 1 2 2 1 3 5 5 5 6 9 8 6 5 6 7 7 8 9 9 9 10 10 9 8 7 5 5 4 3 2 1 1 2 4 5 4 4 5 4 5 5 6 7 8 8 9 9 10 10 10 10 11 11 11 12 12 12 12 12 12 12 12 11 11 12 12
9 9 9 8 8 7 8 8 8 8 8 7 7 6 4 5 5 5 4 2 2 1 1 4 5 5 6 6 8 9 8 7 6 7 7 7 7 8 9 9 9 9 8 8 7 6 6 6 4 3 2 2 2 3 4 4 4 4 4 5 5 6 7 8 9 9 9 10 10 11 11 11 12 12 12 12 12 12 13 13 13 13 13 13 12 12
8 8 8 8 7 7 7 7 6 5 5 5 6 5 4 3 2 4 4 2 1 1 4 7 6 5 6 6 8 8 9 9 8 8 8 8 9 8 9 10 9 9 8 7 7 6 6 6 4 3 2 2 3 4 4 4 4 4 5 5 5 7 8 9 10 10 10 11 11 12 12 12 13 13 13 13 13 14 14 14 15 15 15 14 14 14
8 9 8 7 8 8 9 8 5 3 4 4 3 2 3 3 2 3 3 2 1 1 6 8 6 5 4 5 6 7 9 10 9 9 9 9 10 9 9 10 9 9 8 7 7 6 6 5 3 2 2 3 5 5 5 5 4 5 5 6 7 8 9 10 11 11 12 12 12 13 13 13 14 14 14 15 15 15 15 16 16 16 16 16 16 16
7 8 7 7 9 10 11 9 6 4 4 4 3 3 5 5 3 3 4 3 2 3 6 7 5 5 5 5 6 7 8 10 10 11 10 10 10 9 9 9 9 9 8 7 7 6 6 5 3 3 4 4 5 5 5 5 5 6 7 7 8 9 10 11 11 12 13 13 14 14 14 15 15 16 16 16 16 17 17 17 17 18 18 18 18 18
7 7 7 8 10 10 9 9 7 6 4 3 5 6 6 5 4 4 5 5 5 5 6 5 4 5 6 7 8 9 9 10 11 11 11 11 10 10 10 10 9 8 7 7 6 6 6 5 5 5 5 5 5 6 6 6 7 7 8 8 9 10 11 12 12 13 14 15 15 15 16 16 17 17 17 18 18 18 19 19 19 19 19 19 19 19
8 7 7 7 7 6 7 7 6 7 6 5 6 6 5 6 6 5 4 5 5 4 5 6 6 6 7 8 10 11 9 9 11 11 11 11 11 11 11 10 9 8 7 6 6 6 5 6 6 6 5 5 6 6 7 7 8 9 9 9 9 10 11 12 13 14 15 16 16 17 17 18 18 18 19 19 20 20 20 21 21 20 20 20 21 21
8 7 6 5 3 3 5 4 4 6 7 6 5 5 5 4 4 4 4 4 3 3 5 6 7 7 7 8 10 11 11 10 11 11 11 11 11 11 11 10 9 8 7 6 6 6 7 6 6 5 5 5 6 6 7 8 8 9 9 10 10 11 12 13 14 16 17 17 18 19 19 20 20 20 20 21 21 22 22 22 22 22 22 22 22 22
8 7 6 4 2 2 4 4 4 4 3 3 3 4 5 3 3 2 3 4 3 3 5 6 7 8 8 9 10 11 12 11 11 11 11 11 11 11 10 9 9 8 7 6 6 7 7 6 5 4 4 5 5 7 8 9 10 10 10 11 11 12 14 15 17 18 19 19 20 21 21 21 21 22 22 23 23 23 23 23 23 23 23 23 23 23
9 8 7 6 3 2 5 6 6 4 2 2 3 4 5 4 4 3 5 6 4 3 5 5 7 9 9 10 10 11 12 11 10 10 10 10 10 10 10 9 9 8 7 6 6 6 6 5 5 5 6 6 8 9 10 11 12 12 12 13 14 15 16 17 19 20 20 21 21 22 22 22 23 23 24 24 24 24 24 24 24 24 24 24 24 24
11 9 7 7 6 5 6 6 6 5 3 3 4 4 4 5 5 4 5 6 4 5 6 5 6 9 10 10 10 11 11 11 10 9 9 9 9 9 9 8 7 7 6 6 5 5 5 5 6 7 8 9 10 11 12 13 13 13 14 15 16 17 18 19 20 21 22 22 23 23 23 24 25 25 25 26 26 26 26 26 26 26 26 26 26 25
11 9 8 8 7 6 6 6 5 5 4 4 4 4 4 4 5 4 5 6 6 7 7 7 8 10 10 11 10 10 10 10 10 9 8 8 8 8 7 6 6 5 5 5 5 5 6 7 8 9 10 11 12 12 13 14 14 15 16 17 18 19 20 21 22 23 23 23 24 24 25 25 26 27 27 27 27 27 27 27 27 27 27 26 26 26
10 10 9 7 6 6 7 7 6 6 6 4 2 2 2 2 2 4 5 6 7 8 7 7 8 10 11 11 10 9 10 10 10 9 8 7 7 7 6 5 5 4 5 5 6 7 8 9 9 10 12 13 13 14 14 15 15 17 17 18 19 20 21 23 23 24 24 24 25 26 26 27 27 28 28 28 28 28 28 28 27 27 26 26 26 26
9 9 8 7 7 6 6 7 7 7 6 5 3 4 4 4 4 5 7 7 7 8 7 7 9 10 11 11 11 10 10 10 9 9 8 8 7 6 5 4 4 5 6 7 7 8 10 10 11 12 13 13 13 14 15 15 16 17 18 20 21 22 23 23 24 24 25 25 26 27 27 28 28 28 28 28 28 27 27 26 26 26 26 26 26 26
8 8 7 7 8 9 8 9 9 7 6 6 5 5 6 6 6 7 8 8 7 7 8 10 9 10 11 11 11 11 10 9 9 8 8 8 6 5 4 4 5 6 7 8 8 10 11 11 12 12 13 13 13 14 15 16 17 19 20 21 22 23 23 24 24 25 25 26 27 27 28 28 28 28 28 28 27 27 26 26 26 25 25 25 25 25
8 8 8 6 6 8 8 7 6 4 4 4 4 5 6 7 7 7 8 7 6 7 10 12 9 9 11 12 11 10 9 9 8 8 7 7 5 5 4 5 6 7 8 9 10 10 11 12 12 12 13 13 14 15 16 18 19 20 21 22 22 23 24 24 25 26 26 27 27 28 28 28 28 28 28 27 26 26 26 26 26 26 26 25 25 25
9 9 9 6 4 4 4 2 2 2 2 2 3 4 5 6 6 6 7 7 7 9 10 10 9 9 12 11 10 10 9 8 8 7 7 6 5 5 5 6 7 8 9 10 10 11 11 12 12 12 13 14 15 17 18 19 20 21 22 22 23 24 25 25 26 26 27 27 28 28 28 28 28 27 27 26 26 26 26 26 26 25 25 25 25 25
10 10 9 8 5 2 2 2 2 3 2 2 4 5 5 6 6 7 7 7 8 9 9 8 8 11 12 11 10 9 8 7 7 7 6 6 6 6 7 7 8 9 10 10 11 11 11 12 12 13 14 16 17 18 19 21 22 22 22 23 24 25 25 26 26 26 26 26 27 27 27 26 26 26 26 26 25 25 25 25 25 25 24 24 24 24
10 11 10 8 6 4 4 3 2 2 3 3 6 6 5 6 7 7 7 7 8 9 9 8 9 11 13 11 9 8 7 7 6 6 7 7 7 7 8 9 9 10 10 11 11 11 12 13 14 15 16 17 18 19 21 22 22 23 23 24 24 24 25 25 25 25 25 25 26 26 25 25 25 25 24 24 24 24 24 23 23 23 23 22 22 22
9 12 10 7 6 6 5 4 3 3 2 3 6 7 6 6 7 8 8 9 9 9 9 9 10 11 12 10 9 7 7 6 7 7 8 8 8 8 9 9 10 10 10 11 12 12 13 14 15 16 17 18 19 21 22 22 23 23 23 23 23 23 24 24 24 25 25 25 25 24 24 24 24 23 23 22 22 22 22 22 21 21 21 21 21 20
8 11 10 8 7 8 8 7 6 5 4 6 9 9 8 8 8 8 10 10 10 9 9 10 11 10 10 9 8 8 8 8 8 8 9 9 9 9 9 9 10 10 11 12 12 13 14 15 16 17 17 19 20 21 22 22 22 22 22 22 23 23 23 24 24 24 24 23 23 23 22 22 22 22 21 21 21 21 21 21 20 20 20 20 19 19
7 8 9 9 9 10 11 10 8 7 9 10 12 10 9 8 8 9 10 10 10 10 10 10 9 8 8 8 8 8 9 9 9 9 9 9 9 10 10 11 11 11 12 13 14 14 15 16 17 17 18 20 21 21 21 21 21 21 22 22 22 23 23 23 23 22 22 22 21 21 21 21 21 21 20 20 21 21 20 20 20 19 19 19 19 19
7 7 7 8 8 9 10 9 8 9 10 11 10 9 8 8 7 8 9 10 9 9 8 8 8 7 7 7 8 8 9 10 10 10 10 10 11 11 11 12 12 12 12 13 14 15 16 16 17 18 19 20 21 20 21 21 21 21 21 22 22 22 22 22 21 21 21 20 20 20 20 20 21 21 20 20 21 21 20 20 19 19 19 19 19 18
7 7 7 6 7 8 8 7 7 8 9 8 7 7 7 8 7 8 9 10 10 8 8 8 8 8 7 8 9 9 10 10 11 11 12 12 12 12 11 12 12 13 13 14 15 15 16 16 17 19 20 20 20 20 20 21 21 21 21 21 21 21 21 21 20 20 20 20 20 20 20 20 21 21 20 20 21 20 20 19 19 19 19 19 18 18
7 7 7 6 6 7 6 5 5 6 7 7 9 10 10 9 9 9 9 10 10 9 8 8 8 8 8 8 9 9 9 10 12 14 14 13 13 12 12 13 13 14 15 15 15 16 16 17 18 19 19 19 19 19 20 20 20 20 19 20 21 21 20 20 19 20 19 19 20 20 20 20 21 21 20 20 20 20 19 19 19 19 19 19 19 19
7 7 8 7 7 7 5 5 5 7 8 10 11 12 10 8 7 7 8 9 11 10 8 7 8 8 8 9 9 9 9 11 13 14 14 13 12 12 12 13 14 15 16 16 16 17 17 18 19 19 18 18 18 19 20 20 19 19 19 20 20 20 19 19 19 19 19 19 20 20 20 20 20 19 19 19 19 19 19 19 18 18 19 19 19 19
3 5 5 5 7 7 6 6 8 9 9 11 12 11 8 5 5 7 8 10 11 10 7 7 8 9 9 9 10 10 11 12 13 14 13 12 11 12 13 14 15 15 16 16 17 17 18 18 19 18 18 18 19 20 19 19 19 18 19 19 19 18 19 19 19 19 19 19 20 19 18 19 19 18 18 19 19 18 18 18 18 18 18 18 18 18
3 4 5 4 6 7 6 6 7 8 8 9 10 9 8 7 7 8 10 11 11 9 8 8 8 9 10 10 11 12 12 13 13 13 12 11 11 12 13 13 15 15 16 17 17 18 18 18 18 18 18 19 19 19 19 18 18 18 18 18 18 18 18 19 19 19 18 18 18 17 17 18 18 17 18 18 18 18 17 17 17 17 17 17 17 17
6 6 6 5 5 6 5 5 6 7 8 8 9 9 9 9 9 9 11 11 10 9 9 9 9 10 11 11 12 12 13 12 11 11 11 10 11 12 13 14 15 16 17 17 18 18 18 18 18 18 19 19 19 18 18 18 18 17 17 17 17 17 18 18 18 18 17 17 16 16 17 18 17 16 17 17 17 17 17 17 17 17 17 17 17 17
7 7 7 6 6 6 6 5 6 7 8 9 10 10 9 9 10 11 10 9 7 8 9 9 10 11 11 11 11 11 11 10 10 10 11 12 12 12 13 15 16 17 17 18 18 18 18 18 18 19 19 18 18 18 17 17 17 17 17 17 17 17 17 17 17 17 16 16 16 17 18 17 16 16 16 16 16 16 16 16 16 17 17 17 17 17
7 6 6 7 6 6 6 6 6 8 10 11 11 11 10 10 10 9 8 7 6 7 8 9 10 10 10 10 10 9 9 10 10 11 12 13 13 14 15 16 16 17 18 18 18 18 18 18 18 18 18 17 17 17 16 16 16 17 17 16 16 17 17 17 17 16 16 15 15 17 17 16 15 15 15 15 15 16 16 16 16 16 16 16 17 17
7 7 7 8 8 7 7 7 8 9 10 10 9 9 9 9 7 6 6 7 7 7 8 9 10 10 10 10 10 9 10 10 11 12 13 14 14 15 15 16 16 17 18 17 17 17 17 17 17 16 16 16 16 16 16 16 16 17 17 16 16 16 16 16 16 15 15 15 16 16 16 16 15 15 15 15 15 15 15 15 15 16 16 16 16 17
7 6 5 7 8 7 7 8 8 8 8 7 5 5 5 5 5 4 5 7 8 8 9 9 10 10 10 10 9 10 11 12 13 14 14 14 15 16 16 16 17 17 17 17 17 17 16 16 15 15 15 15 16 16 16 16 16 16 16 16 16 16 16 16 15 15 14 15 15 16 15 15 15 16 16 15 15 15 15 15 15 15 16 16 16 17
6 4 4 6 6 5 5 5 5 4 4 4 4 4 4 4 4 5 6 7 8 9 9 10 10 11 11 11 11 11 12 13 14 14 14 15 16 16 16 16 16 16 16 16 16 16 15 15 15 15 14 15 16 16 17 17 16 16 16 16 16 16 15 15 15 14 14 15 15 15 15 15 15 16 16 15 14 14 14 15 15 15 15 16 16 16
6 5 5 5 5 5 5 4 3 2 2 2 3 4 4 5 5 6 7 8 9 10 10 11 11 12 12 12 11 11 12 13 13 14 15 15 16 16 16 16 16 16 15 15 14 14 14 14 15 15 15 15 16 17 17 17 16 15 15 16 16 15 14 14 14 14 14 14 15 15 14 14 15 15 15 14 14 14 15 15 15 15 15 15 15 16
6 5 4 5 4 4 4 4 3 1 1 2 3 3 4 6 7 8 9 9 10 11 12 12 12 12 12 12 12 11 12 13 13 13 14 15 15 16 16 16 16 15 14 14 13 14 14 14 14 15 14 15 16 17 16 16 16 15 15 15 15 14 14 14 14 14 14 14 14 14 13 14 14 14 14 14 15 15 15 15 15 15 15 15 15 15
5 4 4 4 3 4 3 3 2 2 3 3 3 4 6 6 7 8 9 10 11 11 12 12 13 13 12 12 12 11 11 12 13 14 14 15 15 16 16 16 15 14 13 13 13 13 14 14 14 14 15 15 16 16 16 15 15 15 14 14 14 14 14 14 14 14 14 14 14 13 13 13 14 14 14 15 14 15 15 15 15 14 15 15 15 15
5 4 4 4 4 5 6 5 3 3 5 6 5 5 6 7 7 8 9 10 10 11 11 12 13 12 12 11 11 11 12 13 14 14 14 15 15 15 16 15 14 13 12 12 13 13 13 13 13 14 15 15 15 15 15 15 15 15 14 13 13 14 14 14 14 14 14 14 13 13 13 13 13 14 14 14 14 15 15 15 14 14 14 15 15 15
6 5 5 5 5 6 6 5 3 3 5 6 6 6 7 7 8 8 9 9 10 11 11 11 11 11 11 12 12 13 13 14 14 14 14 15 15 15 15 15 13 12 12 12 13 13 13 13 13 14 15 15 15 15 15 15 15 15 14 13 13 14 14 14 14 14 15 14 12 12 13 13 13 13 14 14 14 15 15 14 14 14 14 15 15 15
Wind_Direction
214 236 260 265 274 303 326 324 320 305 305 344 1 353 334 323 315 300 319 356 49 28 6 16 28 29 22 20 16 13 21 23 22 22 18 19 24 31 41 37 29 26 23 20 20 20 21 23 20 17 15 11 9 8 5 4 3 0 359 4 8 9 9 7 4 1 357 353 348 348 352 350 344 342 343 346 348 347 346 345 341 336 332 331 327 320
219 252 253 257 276 291 303 307 320 324 320 342 347 328 320 327 324 335 23 20 42 20 353 2 26 31 30 26 13 13 21 20 21 21 17 19 24 31 40 39 27 22 19 17 15 15 25 27 20 15 10 7 7 5 4 4 2 1 4 10 12 11 10 8 7 7 5 2 357 355 356 357 355 351 349 347 349 351 349 347 347 346 344 342 337 330
237 241 241 270 307 313 310 310 324 331 329 346 349 347 314 324 340 344 8 14 349 355 342 352 28 39 29 20 13 17 22 15 15 19 19 20 22 25 32 33 29 26 16 12 14 13 19 21 16 14 10 6 6 1 0 3 2 5 14 19 16 13 13 12 12 12 10 7 6 4 2 2 2 1 358 354 352 355 356 352 349 350 349 348 346 339
238 241 256 291 304 309 316 325 340 9 18 348 358 20 347 322 350 329 317 300 326 335 334 348 18 22 14 10 9 12 19 16 13 19 22 19 19 17 17 18 20 23 17 8 9 10 13 16 14 15 12 6 5 1 358 3 8 13 18 15 13 12 12 14 14 13 13 12 11 10 9 7 6 3 1 359 359 359 3 5 2 357 354 355 355 348
245 257 273 291 294 297 308 318 327 359 354 346 5 27 5 329 316 317 314 283 327 336 345 30 10 344 346 1 1 360 15 17 12 19 19 14 17 13 6 4 2 5 6 4 8 10 11 11 9 9 6 359 2 7 9 12 15 15 13 9 7 8 8 10 10 9 11 12 11 10 10 10 7 4 1 0 1 1 4 8 8 5 -0 359 359 354
248 260 272 283 288 293 299 301 296 297 339 340 344 353 357 321 299 303 306 274 320 319 277 278 3 327 326 349 344 346 9 9 1 10 10 6 11 8 3 359 353 352 352 355 358 357 0 0 357 357 358 2 8 11 15 19 19 16 14 10 6 7 10 10 7 6 8 9 9 9 9 9 6 4 3 0 358 359 0 2 4 3 357 352 348 346
244 258 272 281 281 281 289 289 282 329 331 313 305 305 325 341 337 29 189 234 268 276 257 261 347 334 320 322 315 338 3 356 350 358 357 358 3 1 359 355 353 351 346 346 343 343 350 354 356 352 353 20 29 19 19 23 21 19 18 13 10 13 17 15 11 8 9 10 9 9 8 7 5 4 2 1 357 354 354 357 357 354 349 346 342 338
247 265 274 276 271 265 263 268 281 305 308 294 292 297 310 342 25 67 177 225 265 283 258 262 329 347 318 305 313 334 354 349 343 347 348 356 4 1 358 355 354 348 337 331 327 335 345 349 354 351 355 49 51 35 32 30 23 20 18 16 16 20 21 19 14 10 13 15 12 10 9 6 4 2 357 355 352 348 346 350 352 349 345 343 342 340
245 254 257 257 258 255 245 258 285 301 295 279 276 290 300 305 327 326 287 266 279 287 253 262 308 352 329 314 321 321 332 334 329 335 342 350 358 358 354 348 347 342 333 324 309 317 339 352 354 349 12 70 63 45 35 28 27 25 20 19 21 23 23 20 16 15 16 17 15 12 10 8 5 1 356 351 349 345 342 343 346 345 340 336 334 333
243 243 250 250 248 250 251 262 276 285 283 275 280 298 305 309 307 306 299 286 285 284 245 247 273 358 332 309 306 308 316 317 319 329 340 345 349 349 344 341 343 341 336 332 319 307 328 349 353 346 21 81 57 33 23 20 28 30 23 21 23 24 23 20 19 19 17 15 14 12 9 7 3 359 355 351 349 346 342 339 340 340 336 332 330 328
247 250 254 251 247 250 256 263 261 262 274 285 311 319 319 324 321 313 304 292 294 302 260 237 242 337 322 299 292 311 325 327 323 329 338 345 349 346 340 343 346 342 340 339 337 326 329 343 349 349 66 105 36 15 11 14 24 29 22 18 21 21 19 18 17 16 14 11 10 8 5 2 358 354 351 349 346 343 340 337 336 336 333 331 330 328
252 250 247 245 249 252 256 264 264 268 280 285 304 313 315 321 331 333 323 317 7 296 262 239 282 356 339 308 292 304 322 332 321 321 334 344 347 345 342 344 345 342 341 341 340 336 335 336 333 340 104 119 1 6 10 14 23 27 25 22 22 18 14 14 12 10 9 5 3 360 357 355 351 348 345 343 341 338 335 333 330 331 330 327 326 325
252 242 240 245 253 251 250 265 273 278 286 282 278 285 301 312 325 332 325 343 358 285 239 294 346 351 343 327 310 310 316 320 312 321 335 340 340 341 342 343 344 343 341 341 343 339 332 327 311 299 217 263 340 8 12 16 23 22 21 21 19 12 6 4 2 360 359 357 354 351 348 347 345 342 339 337 335 333 331 328 326 326 325 322 321 320
248 245 244 245 255 249 239 255 270 272 275 270 258 256 282 308 317 308 306 343 344 297 276 326 336 335 327 331 334 333 336 338 336 338 339 336 336 339 340 340 341 344 342 339 342 343 337 333 317 289 258 260 329 1 359 0 9 9 7 8 7 1 355 352 350 347 347 348 346 344 342 340 338 336 335 332 329 327 325 324 323 322 319 317 316 313
232 243 238 229 243 247 234 240 246 251 265 264 244 237 254 284 299 288 290 311 302 293 319 321 322 315 312 328 341 347 351 353 351 344 340 337 334 335 338 338 339 344 345 340 339 342 342 337 329 310 268 264 316 333 333 340 351 356 355 349 347 346 344 343 342 341 341 340 339 338 336 335 334 332 330 328 324 322 320 319 319 317 315 313 310 308
222 237 237 234 247 243 235 239 235 236 271 273 246 229 256 259 273 305 303 286 235 306 322 320 317 309 310 333 344 350 352 352 350 344 341 337 333 334 337 335 336 340 342 340 337 340 344 341 334 318 279 284 310 317 321 328 332 335 334 331 332 332 332 334 336 336 335 334 333 333 332 330 330 328 326 324 322 320 317 316 314 314 312 309 306 305
218 238 247 262 264 243 228 228 225 223 248 267 245 240 263 260 250 282 290 294 311 309 309 316 316 312 320 328 332 340 342 343 344 340 337 333 331 335 335 331 330 331 334 335 332 334 338 332 315 302 292 300 312 313 317 322 323 326 325 324 327 329 329 329 329 330 331 330 329 329 328 326 326 324 323 321 320 318 315 313 311 310 308 305 304 302
218 242 264 275 269 246 219 215 226 232 231 250 253 253 276 288 275 269 269 291 320 314 302 311 308 302 311 312 317 328 332 334 333 331 330 328 327 329 329 327 324 324 327 328 327 328 328 319 306 303 303 309 315 317 320 322 322 324 323 322 323 325 327 325 324 325 326 326 325 324 323 322 321 320 319 318 317 315 313 312 309 307 305 303 302 301
215 240 280 289 268 233 199 202 233 253 249 251 260 265 281 288 283 284 279 286 311 315 304 310 312 308 307 304 311 320 321 324 324 323 324 322 319 320 320 320 319 317 317 319 320 318 314 307 300 302 310 317 323 327 327 325 322 321 319 319 320 321 322 322 321 322 323 322 321 319 319 318 317 316 315 315 314 313 312 310 308 306 304 302 301 300
209 227 277 306 281 203 189 201 239 261 267 268 274 287 293 281 269 274 287 289 296 307 302 305 311 309 304 302 310 313 313 317 320 319 319 315 312 313 312 312 311 307 307 309 310 309 308 304 302 309 325 329 331 332 328 325 324 323 322 320 319 319 319 319 319 319 320 319 318 316 316 315 314 313 312 312 311 311 310 308 306 304 302 301 299 298
208 219 250 281 293 199 202 220 229 234 261 261 254 289 300 289 261 268 309 313 302 293 293 302 308 301 300 308 314 315 315 317 318 318 316 312 310 311 309 308 307 305 305 306 308 309 307 307 312 323 330 326 325 326 324 324 325 325 324 321 319 318 318 317 317 317 316 316 315 314 313 312 312 311 310 310 310 308 307 305 304 303 301 300 298 297
209 215 232 250 267 255 239 244 241 223 212 221 236 269 272 256 256 281 306 312 319 308 291 298 302 294 298 312 317 318 319 318 317 317 314 312 312 313 311 310 309 311 312 312 313 311 308 313 324 327 325 322 321 322 321 321 322 322 319 317 316 315 315 315 315 315 314 313 313 312 312 311 310 309 309 308 308 307 305 304 302 301 300 298 297 296
212 214 226 244 245 245 249 252 251 239 230 255 275 277 262 255 262 258 265 285 318 326 310 313 308 296 299 311 316 318 319 318 317 317 317 316 314 314 314 313 313 315 316 315 315 315 314 318 322 321 319 319 319 319 318 316 317 317 315 314 314 313 313 313 313 313 312 312 312 311 310 310 310 309 309 308 307 306 304 302 301 300 298 297 296 294
217 216 225 243 245 245 254 256 261 266 265 279 295 294 282 277 278 265 258 277 309 316 312 318 312 300 301 310 315 317 319 322 321 319 318 316 314 314 313 313 317 321 320 315 315 317 317 317 317 314 312 314 315 315 316 315 314 313 313 312 313 312 312 312 312 312 311 311 311 310 310 309 309 308 308 307 306 304 303 301 299 298 297 295 294 293
218 218 218 229 242 259 272 270 272 280 278 276 281 281 274 269 290 303 298 304 312 307 306 312 304 299 304 312 317 319 322 327 325 320 317 313 313 315 314 314 318 322 319 313 311 313 316 317 313 309 310 312 313 313 314 314 312 312 312 312 312 312 312 312 311 311 311 311 310 310 310 309 308 308 307 306 304 303 302 300 299 297 296 295 294 292
213 216 212 214 224 236 251 256 260 271 273 265 252 253 263 269 278 297 308 314 307 298 304 306 298 300 307 311 316 319 322 326 325 321 319 318 318 315 310 311 313 314 314 308 305 307 312 313 307 306 310 312 312 312 312 312 312 312 312 313 312 312 312 312 311 311 311 311 310 310 310 309 308 308 307 306 305 304 303 301 299 298 297 295 294 293
210 217 218 216 220 225 236 250 257 262 256 245 249 262 275 280 278 290 304 304 293 293 303 301 296 303 306 306 311 314 316 319 317 316 319 323 325 315 303 304 309 311 310 306 303 303 306 306 303 305 310 310 310 312 312 313 313 313 313 313 313 313 312 312 312 312 311 311 311 311 310 310 309 308 307 307 306 305 304 303 301 300 299 297 295 294
208 220 222 217 222 232 245 256 256 253 243 236 251 271 277 277 281 294 298 289 287 301 303 297 296 302 302 303 307 309 310 312 309 308 312 317 321 315 303 301 306 308 306 305 304 303 304 305 305 308 310 311 312 314 314 315 315 314 313 313 313 313 312 312 312 312 312 312 312 311 311 310 309 308 308 307 306 306 305 304 303 301 300 298 296 295
207 217 221 217 222 235 244 237 196 199 235 256 259 262 270 279 290 301 294 278 286 300 297 291 295 301 303 306 306 303 305 307 306 306 307 307 309 310 307 305 306 307 306 305 306 306 307 308 309 310 312 313 314 315 316 316 315 313 313 313 313 313 313 313 313 313 313 313 313 312 312 311 311 310 310 309 308 307 306 305 303 302 300 299 297 296
210 217 222 217 216 225 213 202 190 192 218 273 280 273 281 295 304 308 300 293 303 307 300 298 305 308 308 309 308 305 305 309 308 307 307 303 298 301 305 307 307 307 307 307 308 309 309 309 310 312 313 313 314 315 315 315 314 314 314 314 314 314 313 313 314 314 314 315 315 315 314 314 314 314 313 312 311 310 309 308 306 304 303 301 300 298
210 216 223 215 215 230 214 203 223 226 228 278 297 295 298 308 315 316 309 310 317 315 311 313 312 308 307 309 312 311 309 312 311 304 303 301 297 300 306 308 308 307 307 308 309 310 309 310 311 311 312 312 313 314 315 315 315 315 315 315 315 314 315 315 316 317 317 317 318 318 317 317 317 317 317 316 315 315 314 312 311 309 307 305 304 302
205 212 223 219 220 236 226 208 226 235 237 315 308 300 303 309 309 307 303 304 307 309 313 313 306 302 303 305 310 310 306 306 303 298 299 300 299 302 306 307 306 304 305 307 308 310 310 311 311 311 311 312 313 315 316 316 316 316 316 316 316 316 317 318 318 319 319 319 319 320 320 320 320 321 321 321 321 320 320 318 316 315 313 311 309 307
204 208 222 225 227 239 235 224 235 255 276 293 288 284 292 304 305 306 308 308 307 308 308 303 301 302 303 303 308 307 302 300 296 295 298 298 299 302 302 301 302 303 306 309 309 311 311 311 312 312 312 313 315 316 317 317 318 318 318 318 318 318 319 319 320 321 321 322 322 323 324 324 324 325 324 324 324 324 323 322 321 320 318 316 314 312
209 212 227 233 235 244 245 243 256 275 274 274 279 280 287 299 304 307 311 311 312 313 311 309 310 310 305 302 303 300 298 299 297 296 299 300 300 302 301 302 305 308 311 311 310 312 313 313 314 314 314 315 316 317 318 318 319 319 319 319 319 320 321 322 322 323 324 325 325 326 327 327 327 327 326 326 327 326 326 325 324 323 322 320 318 316
212 217 229 236 237 246 256 263 272 275 267 268 283 291 294 303 309 315 319 317 318 318 318 319 315 306 300 297 293 294 297 300 299 297 300 302 302 303 303 303 307 309 309 310 313 314 313 313 314 315 316 316 317 318 319 319 320 320 320 321 322 322 323 324 325 325 326 326 326 327 327 328 328 329 328 328 328 327 326 326 326 325 324 323 322 319
211 221 229 240 245 251 267 274 260 255 258 268 286 292 298 306 307 312 317 315 314 314 313 312 308 301 300 297 293 296 298 299 304 304 301 299 300 302 302 302 306 309 309 311 314 313 312 313 315 317 318 317 317 318 319 320 321 321 321 322 323 325 326 327 327 327 327 327 327 327 327 327 328 329 328 327 328 327 327 326 326 325 324 323 323 321
222 230 236 246 254 251 255 259 246 245 256 270 279 281 285 289 287 292 302 305 308 309 305 306 308 304 303 303 301 303 307 312 319 319 313 306 302 304 307 309 313 315 314 314 314 314 314 315 318 319 319 318 318 319 320 321 321 321 322 323 325 326 328 328 328 328 327 327 327 328 327 327 328 329 329 328 329 329 328 327 326 325 323 323 323 322
239 240 238 242 252 251 238 235 253 265 266 269 278 283 283 278 279 292 303 301 304 307 301 302 308 307 306 308 305 306 315 320 320 321 322 318 311 311 314 317 319 319 317 316 315 315 316 317 319 319 319 320 320 320 320 321 321 321 322 323 325 327 328 328 327 327 327 327 327 328 328 328 329 330 331 332 332 332 330 329 328 326 324 324 323 323
255 250 246 241 250 255 245 241 258 268 267 269 281 290 287 265 273 304 311 300 297 301 299 298 303 303 303 306 305 306 312 313 310 311 319 322 317 314 315 317 320 321 320 319 317 317 318 318 319 320 320 320 321 320 320 320 321 322 322 323 325 327 327 326 326 326 327 327 327 328 329 330 331 333 334 335 335 335 334 333 332 331 330 329 327 326
258 263 269 264 261 261 254 254 264 268 267 272 282 287 275 261 281 306 305 293 289 294 295 293 295 298 301 304 307 308 306 306 305 307 312 316 316 315 314 315 318 320 321 320 319 318 318 318 319 319 319 319 319 319 319 320 321 322 322 323 325 325 326 325 324 325 326 327 328 330 331 332 334 335 336 336 338 339 339 339 339 339 339 338 336 334
259 269 276 273 275 274 262 259 266 266 265 271 279 283 278 276 290 300 292 285 288 294 297 294 293 299 305 306 308 309 307 305 305 306 309 313 313 313 313 315 316 317 317 318 318 318 317 317 318 317 317 317 318 319 320 320 321 322 322 323 323 323 324 325 325 326 328 329 331 332 333 334 335 335 336 338 340 342 343 344 344 345 345 345 344 343
264 274 278 272 271 272 266 265 266 267 274 280 281 289 294 287 285 288 287 288 296 304 308 308 305 305 309 310 312 314 313 309 306 306 309 312 312 312 313 313 315 316 316 316 317 316 316 317 317 316 316 316 318 319 321 321 320 320 322 323 322 321 322 324 325 327 329 331 332 333 335 336 336 336 337 340 341 342 343 345 346 347 348 348 348 348
263 266 268 265 266 268 271 280 275 270 282 290 285 289 298 290 278 282 293 301 306 313 322 324 317 312 313 315 318 317 314 310 308 308 309 310 310 310 310 311 313 314 315 315 315 315 316 316 315 315 315 316 317 319 320 320 318 319 321 321 320 321 322 324 326 327 330 332 332 333 336 337 337 337 337 338 339 340 341 343 345 346 347 347 348 349
268 263 259 263 269 267 266 275 275 273 287 299 292 287 296 296 284 285 301 307 309 316 324 327 324 318 316 317 317 315 313 311 310 309 309 309 309 308 308 310 312 314 315 316 315 315 315 314 313 314 315 315 316 318 318 317 316 316 319 319 318 320 322 324 326 328 330 330 331 333 335 336 337 337 337 336 337 338 339 340 342 344 345 346 347 348
268 262 263 273 278 275 271 272 272 278 298 316 317 307 314 319 310 306 312 314 315 317 320 324 324 319 317 318 317 314 312 310 309 310 310 310 309 309 310 312 313 314 314 315 315 314 313 312 313 314 314 315 316 316 317 317 315 314 316 318 317 318 319 322 325 327 327 328 330 333 333 334 336 336 335 334 335 335 336 338 339 341 343 344 346 347
269 269 282 281 278 288 296 285 279 295 318 337 345 344 348 341 323 319 322 321 318 317 317 318 318 315 313 314 314 313 311 309 309 311 310 310 310 311 313 312 312 313 313 313 314 313 312 313 315 315 314 315 316 317 318 318 316 313 314 316 318 318 319 322 325 326 325 327 329 331 332 332 335 335 334 334 335 336 336 337 337 339 340 341 343 344
285 291 296 285 275 282 282 268 266 296 325 352 357 349 345 336 323 319 319 316 314 314 314 313 315 314 312 311 311 310 308 308 309 309 309 309 310 311 313 312 311 312 313 312 312 313 313 314 317 317 316 315 317 319 320 320 318 314 314 317 319 320 321 324 325 325 325 327 329 330 331 331 334 337 338 338 338 338 337 337 336 336 337 338 340 341
279 285 293 292 294 294 267 239 233 266 294 318 331 323 322 323 320 318 317 314 313 314 314 314 315 315 313 312 311 310 309 309 310 310 309 310 310 312 314 312 311 312 312 310 311 312 313 315 318 320 320 318 318 322 323 322 320 318 316 318 321 322 325 326 326 325 325 327 328 329 329 330 333 336 338 338 338 338 337 336 336 336 335 335 337 339
272 277 281 278 289 298 272 236 230 285 300 302 307 309 312 315 318 319 317 316 318 319 320 320 319 317 315 313 312 313 313 313 313 313 312 312 312 315 316 313 311 312 311 310 310 312 313 315 319 322 324 322 321 324 326 326 324 321 319 320 322 324 327 327 326 325 326 328 328 327 327 329 331 332 334 335 336 336 335 334 335 337 337 336 337 338
284 275 275 269 267 271 265 248 242 273 287 289 295 304 307 310 316 318 316 318 322 322 321 323 323 321 319 317 315 316 316 315 315 316 316 314 313 315 317 316 314 312 310 310 311 312 313 316 320 324 326 325 323 325 327 327 326 323 322 323 325 326 328 327 326 326 327 327 326 325 326 328 329 330 332 333 334 334 334 335 336 338 338 338 339 339
279 258 260 270 274 268 256 244 244 275 289 293 298 304 305 308 314 317 319 322 323 322 321 322 324 325 325 323 321 320 318 317 317 318 318 317 316 317 319 320 318 313 310 310 312 311 313 318 320 323 327 326 324 325 326 326 325 324 323 324 326 326 327 328 327 327 327 326 325 326 327 328 328 329 331 332 332 333 336 337 338 339 339 340 340 340